Weather History for PHNY - February, 2014

Change the Weather History Date:

Tuesday, February 18, 2014

  Actual Average Record
Temperature  
Mean Temperature 73 °F -  
Max Temperature 80 °F 76 °F 84 °F (1999)
Min Temperature 66 °F 57 °F 54 °F (1955)
Cooling Degree Days 8    
Growing Degree Days 23 (Base 50)    
Moisture  
Dew Point 69 °F    
Average Humidity 92    
Maximum Humidity 100    
Minimum Humidity 61    
Precipitation  
Precipitation 0.00 in - - ()
Sea Level Pressure  
Sea Level Pressure 29.97 in    
Wind  
Wind Speed 4 mph (East)    
Max Wind Speed 14 mph    
Max Gust Speed -    
Visibility 8 miles    
Events Rain    
Averages and records for this station are not official NWS values.
T = Trace of Precipitation, MM = Missing Value Source: NWS Daily Summary

Daily Weather History Graph

Daily Weather History Graph

Search for Another Location

Airport or City:

Trip Planner

Search our weather history database for the weather conditions in past years. The results will help you decide how hot, cold, wet, or windy it might be!

Date:

Astronomy

Feb. 18, 2014 Rise Set
Actual Time 6:55 AM HST 6:27 PM HST
Civil Twilight 6:33 AM HST 6:50 PM HST
Nautical Twilight 6:07 AM HST 7:16 PM HST
Astronomical Twilight 5:41 AM HST 7:42 PM HST
Moon 9:55 PM HST (2/18) 9:07 AM HST (2/18)
Length of Visible Light 12h 17m
Length of Day
11h 32m
Waning Gibbous, 86% of the Moon is Illuminated
Feb 18
Waning Gibbous
Feb 22
Last Quarter
Feb 28
New
Mar 8
First Quarter
Mar 16
Full

Hourly Weather History & Observations

Time (HST) Temp. Heat Index Dew Point Humidity Pressure Visibility Wind Dir Wind Speed Gust Speed Precip Events Conditions
12:05 AM 69.8 °F - 69.8 °F 100% 29.97 in 9.0 mi Calm Calm - N/A   Overcast
12:30 AM 69.8 °F - 69.8 °F 100% 29.96 in 10.0 mi SSW 5.8 mph - N/A   Mostly Cloudy
12:39 AM 69.8 °F - 69.8 °F 100% 29.97 in 10.0 mi Calm Calm - N/A   Partly Cloudy
12:56 AM 68.9 °F - 68.9 °F 100% 29.91 in 10.0 mi WSW 3.5 mph - N/A   Scattered Clouds
1:56 AM 66.9 °F - 66.9 °F 100% 29.90 in 7.0 mi ENE 3.5 mph - N/A   Clear
2:56 AM 66.9 °F - 66.9 °F 100% 29.89 in 10.0 mi Calm Calm - N/A   Scattered Clouds
3:48 AM 69.8 °F - 69.8 °F 100% 29.96 in 10.0 mi West 3.5 mph - N/A   Overcast
3:56 AM 68.9 °F - 68.9 °F 100% 29.90 in 10.0 mi NW 3.5 mph - N/A   Overcast
4:17 AM 69.8 °F - 69.8 °F 100% 29.95 in 10.0 mi North 3.5 mph - N/A   Mostly Cloudy
4:56 AM 68.0 °F - 68.0 °F 100% 29.90 in 10.0 mi Calm Calm - N/A   Partly Cloudy
5:56 AM 68.9 °F - 68.9 °F 100% 29.92 in 10.0 mi Calm Calm - N/A   Overcast
6:56 AM 68.0 °F - 68.0 °F 100% 29.94 in 10.0 mi NNE 4.6 mph - N/A   Scattered Clouds
7:56 AM 69.8 °F - 69.8 °F 100% 30.00 in 10.0 mi East 3.5 mph - N/A   Mostly Cloudy
8:56 AM 75.9 °F - 68.9 °F 79% 29.95 in 10.0 mi Calm Calm - N/A   Mostly Cloudy
9:56 AM 75.9 °F - 66.9 °F 74% 29.97 in 10.0 mi Calm Calm - N/A   Overcast
10:20 AM 69.8 °F - 69.8 °F 100% 30.04 in 2.0 mi South 13.8 mph - 0.00 in Rain Light Rain
10:23 AM 69.8 °F - 69.8 °F 100% 30.04 in 1.2 mi SSE 11.5 mph - 0.00 in Rain Light Rain
10:27 AM 69.8 °F - 69.8 °F 100% 30.04 in 1.0 mi SSE 9.2 mph - 0.00 in Rain Light Rain
10:32 AM 69.8 °F - 69.8 °F 100% 30.03 in 1.5 mi SE 10.4 mph - 0.00 in Rain Light Rain
10:38 AM 69.8 °F - 69.8 °F 100% 30.03 in 2.0 mi ESE 6.9 mph - 0.00 in Rain Light Rain
10:56 AM 69.8 °F - 69.8 °F 100% 30.04 in 2.5 mi SSE 11.5 mph - N/A   Overcast
11:03 AM 69.8 °F - 69.8 °F 100% 30.03 in 5.0 mi SE 8.1 mph - 0.00 in Rain Rain
11:26 AM 69.8 °F - 69.8 °F 100% 30.03 in 4.0 mi ENE 3.5 mph - 0.00 in Rain Rain
11:34 AM 69.8 °F - 69.8 °F 100% 30.02 in 2.0 mi NNE 5.8 mph - 0.00 in Rain Light Rain
11:36 AM 69.8 °F - 69.8 °F 100% 30.01 in 3.0 mi NNE 8.1 mph - 0.00 in Rain Light Rain
11:56 AM 70.9 °F - 70.9 °F 100% 29.96 in 10.0 mi NNW 4.6 mph - 0.00 in Rain Light Rain
12:56 PM 77.0 °F - 68.9 °F 76% 29.93 in 10.0 mi Calm Calm - 0.00 in   Partly Cloudy
1:56 PM 77.0 °F - 68.9 °F 76% 29.91 in 10.0 mi NW 4.6 mph - N/A   Clear
2:56 PM 77.9 °F - 68.0 °F 71% 29.89 in 10.0 mi NW 5.8 mph - N/A   Mostly Cloudy
3:09 PM 80.6 °F 83.9 °F 69.8 °F 70% 29.95 in 10.0 mi NNW 5.8 mph - N/A   Scattered Clouds
3:49 PM 78.8 °F - 66.2 °F 65% 29.96 in 10.0 mi South 6.9 mph - N/A   Mostly Cloudy
3:56 PM 77.9 °F - 66.9 °F 69% 29.90 in 10.0 mi South 4.6 mph - N/A   Mostly Cloudy
4:16 PM 78.8 °F - 64.4 °F 61% 29.96 in 10.0 mi Variable 5.8 mph - N/A   Mostly Cloudy
4:56 PM 75.9 °F - 64.9 °F 69% 29.92 in 10.0 mi Calm Calm - N/A   Overcast
5:56 PM 73.9 °F - 65.8 °F 76% 29.93 in 10.0 mi SE 4.6 mph - N/A   Clear
6:56 PM 70.0 °F - 68.0 °F 93% 29.95 in 10.0 mi East 5.8 mph - N/A   Clear
7:56 PM 68.9 °F - 68.0 °F 97% 29.97 in 10.0 mi ENE 3.5 mph - N/A   Clear
8:56 PM 68.9 °F - 68.0 °F 97% 29.98 in 10.0 mi East 4.6 mph - N/A   Clear
9:56 PM 68.0 °F - 68.0 °F 100% 29.99 in 10.0 mi NE 3.5 mph - N/A   Clear
10:56 PM 68.0 °F - 68.0 °F 100% 29.99 in 10.0 mi East 3.5 mph - N/A   Clear
11:56 PM 66.9 °F - 66.9 °F 100% 29.99 in 10.0 mi East 3.5 mph - N/A   Clear